Tracking 18917 objects as of 16-Jan-2018
HD Live streaming from Space Station
objects crossing your sky now

FENGYUN 1C DEB

Track FENGYUN 1C DEB now!
10-day predictions


NORAD ID: 30753
Int'l Code: 1999-025ATP
Perigee: 837.9 km
Apogee: 928.8 km
Inclination: 99.1 °
Period: 102.5 minutes
Semi major axis: 7254 km
RCS: 0.0105 m2 (small)
Launch date: May 10, 1999
Source: People's Republic of China (PRC)
Launch site: Taiyaun Space Center, China (TSC)

Note: This is SATELLITE DEBRIS
aabbcc
Your satellite tracking list
Your tracking list is empty




NASA's NSSDC Master Catalog

Two Line Element Set (TLE):
1 30753U 99025ATP 18016.05426781  .00000071  00000-0  70177-4 0  9996
2 30753  99.0513  52.7628 0062660 167.6967 192.5747 14.05099440557423
Source of the keplerian elements: AFSPC